CAPE
0 0 0 0 0 0 0 0 0 0 0 0 0 0 0 0 0 0 3 0 0 0 0 0 2 5 21 15 112 202 184 47 61 478 681 545 558 561 795 1106 1036 1136 1599 1832 1943 2148 2310 2316 2306 2499 2468 2924 2962 3401 3237 3689 3550 3723 3449 3151 3090 3574 3452 3526 3198 3161 3068 3067 2765 2847 2894 3024 3373 3135 3006 2828 2812 2972 2775 2548 2459 2285 2216 2793 2942 2958
0 0 0 0 0 0 0 0 0 0 0 0 0 0 0 0 0 0 1 0 0 1 0 3 0 0 7 8 36 61 69 72 47 174 416 615 726 705 960 1120 1355 1452 1892 1961 2002 1980 2383 2496 3039 2869 2906 2984 2617 3549 3438 3868 3829 3568 3556 3158 3239 3311 2866 3176 3059 2988 3062 2775 2998 2979 2826 2676 2574 2303 2408 2374 2368 2424 2590 2430 2530 2612 2464 2545 2468 2440
0 0 0 0 0 0 0 0 0 0 0 6 0 0 0 0 7 0 0 2 1 0 1 0 0 0 0 0 6 1 10 23 35 142 185 692 757 885 863 1129 1310 1732 1762 2207 2040 1944 2380 2606 3072 2655 2919 2654 2761 3580 3490 3873 3903 3502 3621 3238 3227 3464 2796 2968 3120 3475 3211 3353 2528 2577 3017 2144 1879 1829 1888 2155 2359 2322 2306 2130 2269 2259 2085 1901 1968 2000
0 0 0 0 0 0 0 0 0 0 0 0 0 0 0 0 0 0 0 0 3 0 0 0 0 0 29 3 1 0 0 8 10 87 190 588 479 864 1063 1358 1468 1582 1420 2209 2227 2326 2522 2584 2922 2679 2817 2771 3243 3761 3559 3575 3768 3434 3762 3829 3541 3835 2941 3314 3925 3871 3306 2929 2850 2569 2971 2512 1925 1244 1470 717 1169 447 146 189 736 176 764 1724 1749 1648
0 0 0 0 0 0 0 0 0 0 0 0 2 0 8 3 0 0 2 0 10 0 0 2 0 0 0 18 12 0 0 0 0 22 142 268 201 800 853 1259 1453 1544 1420 1703 2150 2348 2416 2460 2735 2657 2595 2836 3224 3580 3572 3327 3664 3647 3608 4044 3349 3579 3501 3739 3412 3362 3218 3351 2830 2811 2368 1690 2194 603 1030 235 322 328 688 336 201 392 373 748 946 874
0 0 0 0 0 0 0 0 0 0 0 0 0 0 2 19 6 6 13 0 0 0 0 30 15 1 5 31 11 111 2 0 0 0 79 77 202 709 799 1038 1322 1608 1523 1918 2048 2189 2309 2351 2500 2511 2541 2774 3048 3369 3311 3321 3654 3602 3435 4020 3324 3238 3686 3830 3077 3268 3140 3332 2639 2429 1954 1033 621 371 784 574 179 114 202 218 310 290 600 500 550 628
0 0 0 0 0 0 0 0 0 0 0 0 0 0 0 0 0 8 14 0 0 0 0 4 2 24 0 3 83 226 395 18 0 2 45 64 146 309 807 830 1135 1522 1462 1863 1831 1890 2027 2367 2388 2241 2343 2635 2796 3020 3060 3257 3526 3283 3372 3724 3456 3145 3388 3996 3356 3219 3077 2481 2222 1991 1405 485 879 70 878 1474 532 167 473 565 192 553 365 637 507 459
0 0 0 0 0 0 0 0 0 0 0 0 0 0 0 0 0 1 14 4 1 0 0 0 0 26 6 0 149 240 124 452 252 0 21 58 134 182 721 928 1156 1345 1527 1519 1635 1890 1944 2068 2057 2130 2169 2236 2607 2886 3054 3146 3130 3203 3313 3439 3424 3086 3481 3479 3239 2629 2754 1953 1715 778 59 862 86 8 290 60 6 449 1022 702 341 158 378 759 436 617
0 0 0 0 0 0 0 0 0 0 0 0 0 0 0 0 0 0 1 6 2 6 0 0 0 29 1 4 44 70 73 197 91 72 0 64 68 61 67 905 1197 1198 1365 1406 1437 1626 1517 1301 1689 1887 1887 1955 2543 2886 2935 3035 3112 3331 3329 3406 3350 3228 3273 2977 2818 2299 2237 883 743 652 670 388 226 261 518 655 888 430 329 223 499 571 742 692 910 518
0 0 0 0 0 0 0 0 0 0 0 0 0 0 0 0 0 0 25 9 32 17 5 2 0 0 38 52 60 31 18 54 69 44 14 62 12 3 7 374 1009 980 1263 1238 1217 1092 892 882 1469 1674 1819 1968 2403 2770 2699 2850 3154 3257 3286 3327 3246 3151 2941 2780 2350 1598 1078 838 1061 125 382 108 658 519 478 145 133 161 514 222 194 515 979 521 229 321
0 0 0 0 0 0 0 0 0 0 0 0 0 0 0 0 0 0 0 0 0 5 6 5 10 1 171 75 52 51 34 79 50 29 3 47 13 0 0 271 340 918 1115 1078 901 773 773 1027 1109 1659 1736 1934 2285 2379 2715 2938 3136 3176 3250 3203 3088 2898 2702 2422 1816 769 466 494 552 177 123 50 106 447 247 440 517 576 923 580 583 534 434 150 111 750
0 0 0 0 0 0 0 0 0 0 0 0 0 0 0 0 0 0 0 0 0 0 0 0 0 0 0 84 67 50 75 84 79 48 16 17 32 27 2 51 286 880 1008 936 749 662 675 1028 1339 1682 1519 1780 2295 2462 2770 3029 3038 3128 3217 3037 2865 2660 2467 2040 964 526 390 109 184 628 368 172 156 85 64 5 151 275 320 532 627 411 341 429 606 697
0 0 0 0 0 0 0 0 0 0 0 0 0 0 0 5 0 0 0 0 0 0 0 0 0 0 0 7 123 97 71 48 71 51 25 20 26 86 28 3 111 850 882 807 551 496 589 921 1371 1604 1541 2155 2476 2749 2822 3025 3070 3069 3035 2838 2667 2479 2052 1353 739 560 380 442 298 537 113 137 798 86 86 202 113 373 226 522 354 125 229 480 212 304
0 0 0 0 0 0 0 0 0 0 0 0 0 0 0 0 0 0 0 0 0 0 0 0 0 0 0 3 37 125 105 104 91 51 23 10 5 72 135 18 166 476 487 407 243 314 406 760 1226 1473 1564 2650 2698 2815 2906 3025 3037 2960 2838 2737 2504 2068 1561 882 739 788 445 657 300 187 223 388 216 30 7 440 119 422 1122 214 116 144 265 148 153 382
0 0 0 0 0 0 0 0 0 0 0 0 0 0 0 0 0 0 0 0 0 0 0 0 0 0 0 0 0 16 79 93 132 101 47 22 18 52 177 132 297 369 217 384 330 328 359 550 1008 1242 1635 2761 2836 2886 2979 2996 2944 2893 2758 2518 2084 1510 1048 866 874 834 714 651 530 193 233 143 122 270 573 150 216 292 182 332 213 188 138 409 496 384
0 0 0 0 0 0 0 0 0 0 0 0 0 0 0 0 0 0 0 0 0 4 1 4 0 0 0 0 7 4 18 49 80 68 50 26 16 62 168 160 231 452 277 239 387 483 302 495 836 1015 1808 2696 2915 2943 2949 2927 2842 2748 2516 2077 1527 1180 997 816 918 981 749 586 711 244 115 225 341 776 348 716 654 412 68 82 68 193 274 222 436 774
0 0 0 0 0 0 0 0 0 0 0 0 0 0 0 0 0 0 1 0 0 0 4 4 0 1 4 0 0 12 32 54 34 31 30 20 33 91 258 165 90 218 351 344 455 724 428 586 855 1280 2233 2702 2880 2927 2895 2815 2729 2586 2185 1660 1344 1113 963 847 882 1046 717 464 312 232 89 78 474 414 121 98 327 152 129 134 225 15 38 342 444 207
0 0 0 0 0 0 0 0 0 0 0 0 0 0 0 0 0 6 3 5 0 0 2 0 0 6 1 3 0 50 55 48 1 2 39 45 81 128 163 274 198 194 436 422 434 887 774 790 1214 1645 2440 2686 2853 2882 2781 2733 2579 2361 1970 1481 1290 1062 934 928 957 910 620 578 193 280 168 217 328 340 164 72 88 493 286 78 58 7 82 199 474 505
0 0 0 0 0 0 0 0 0 0 0 0 0 0 0 0 0 0 0 0 1 0 2 1 0 1 1 24 3 5 0 0 1 143 172 78 158 316 183 110 61 368 556 578 443 970 983 1030 1497 1893 2485 2684 2831 2822 2644 2617 2438 2191 1748 1448 1258 990 1006 886 967 646 288 350 338 362 174 212 305 428 408 332 428 266 8 114 119 226 276 329 226 358
0 0 0 0 0 0 0 0 0 0 0 0 0 0 0 0 0 0 0 0 0 0 0 0 0 0 100 9 7 2 3 1 13 370 205 236 250 482 299 305 221 400 625 600 576 686 1084 1164 1676 1894 2362 2642 2809 2702 2520 2416 2271 2001 1558 1429 1213 1013 1106 870 752 346 222 206 398 423 435 579 215 271 128 250 356 164 22 0 0 0 122 53 249 269
0 0 0 0 0 0 0 0 0 0 0 0 0 0 0 0 0 0 0 0 0 0 0 3 8 14 0 7 6 3 0 3 0 78 26 39 122 429 460 389 386 385 755 666 623 603 1027 1210 1624 1866 2241 2477 2776 2589 2357 2234 2082 1875 1551 1359 1185 1176 1110 817 573 158 163 233 284 367 625 471 564 337 356 351 238 220 122 136 325 71 4 56 132 237
0 0 0 0 0 0 0 0 0 0 0 0 0 0 0 0 0 0 0 0 0 0 1 0 2 0 3 130 95 4 2 0 0 0 0 0 1 350 250 666 624 923 1174 706 676 634 784 1210 1337 1632 2059 2424 2704 2552 2370 2220 2079 1826 1460 1151 1321 1208 1050 705 250 339 186 260 389 328 463 567 316 364 236 211 232 218 170 115 114 104 145 64 23 197
0 0 0 0 0 0 0 0 0 0 0 0 0 0 0 0 0 0 0 0 2 0 0 11 0 0 43 5 3 9 6 2 0 0 0 0 8 24 77 641 796 1029 1212 887 672 540 549 1032 1322 1520 2178 2454 2562 2515 2353 2119 1865 1636 1450 1220 1355 1164 929 640 331 522 319 268 359 484 235 383 301 217 328 218 343 273 236 225 129 112 172 169 118 223
46 0 0 0 0 0 0 0 0 0 0 0 0 0 0 0 0 0 6 33 1 46 1 2 16 0 30 326 6 5 0 0 7 0 5 63 0 0 45 867 769 761 992 973 852 980 968 1025 1163 1566 2442 2663 2513 2378 2262 2085 1892 1757 1624 1238 1275 1098 830 598 501 594 526 400 338 545 417 443 464 399 283 406 394 357 236 143 52 84 80 24 5 6
0 0 2 48 12 0 0 0 0 0 0 0 0 0 0 0 0 0 0 604 12 3 2 14 22 2 4 43 0 0 0 0 0 0 0 0 0 0 0 296 1721 1475 922 1003 849 973 1269 1553 1664 1701 2146 2677 2702 2548 2454 2334 2109 1817 1492 1204 1054 1050 724 534 665 620 606 663 608 591 650 565 676 424 389 302 212 183 82 18 0 9 27 54 46 38
0 170 0 0 1 3 0 0 2 0 0 0 0 0 0 0 0 0 0 49 0 76 11 30 24 14 20 112 0 0 0 0 0 0 0 90 0 12 4 288 2131 1394 1200 943 1732 957 818 1822 2096 2167 2089 2187 2432 2485 2413 2267 2037 1713 1555 1280 1005 916 679 527 733 677 626 678 730 703 623 619 590 356 236 234 165 90 26 1 3 0 4 5 14 4
0 42 0 5 4 0 0 1 13 3 1 0 0 0 0 0 0 0 0 0 0 108 2 26 24 78 35 55 0 0 0 10 22 0 27 33 106 63 22 1030 1694 1500 1606 764 2205 1558 1454 2019 2270 2319 2300 2282 2242 2238 2152 2026 1862 1782 1547 1201 988 748 694 691 757 801 810 671 611 612 526 546 446 296 266 295 159 81 64 41 0 0 42 6 9 10
128 3 19 8 5 11 245 31 29 12 3 1 0 0 0 0 0 0 0 0 1 6 4 167 90 71 3 2 0 4 0 2 11 3 58 10 7 53 554 1505 2178 1607 1711 1220 2837 2143 2046 2285 2397 2464 2386 2298 2348 2354 2242 2079 1964 1871 1661 1353 974 744 641 820 793 887 989 861 815 695 528 555 417 321 290 304 311 211 79 19 40 76 113 196 0 2
82 8 87 28 178 33 20 29 32 26 32 31 14 9 3 0 0 0 20 60 191 3 0 63 83 142 4 8 14 74 24 7 0 233 108 260 306 132 397 742 1838 1716 1833 1944 2786 2463 2316 2486 2526 2554 2474 2412 2339 2279 2203 2136 2082 1903 1784 1686 1437 1190 892 908 990 1053 1095 1018 1024 842 668 502 282 281 471 476 333 258 158 92 77 103 136 30 74 222
0 0 2 10 7 14 36 31 29 40 22 22 10 3 6 4 0 0 0 0 112 120 77 208 244 309 76 9 22 42 208 71 56 0 3 0 20 48 430 664 1602 1485 1642 1629 2268 2855 2459 2575 2754 2840 2628 2457 2402 2368 2324 2236 2069 1934 1886 1796 1483 1102 723 964 1140 1227 1215 1069 1107 982 808 559 616 591 477 407 227 44 22 17 42 129 150 172 165 129
0 150 1 0 0 2 12 28 30 17 10 12 3 1 0 1 0 0 0 1 12 20 249 378 454 385 222 94 75 176 283 45 4 0 0 226 290 325 167 108 144 817 1634 1734 2004 2391 2675 2621 2740 2909 2868 2502 2194 2141 2114 2110 2045 1961 1811 1600 1298 931 698 984 1094 1261 1062 885 1008 1016 812 654 632 587 476 283 159 154 146 129 226 241 174 194 285 336
2 77 0 2 0 1 0 2 6 18 18 13 11 14 14 13 22 18 3 0 0 1 1 817 307 284 222 183 576 219 99 54 4 1 21 86 46 309 572 663 740 835 1347 1724 2314 2517 2313 2544 2606 2780 2864 2740 2503 2330 2258 2188 2067 1807 1419 1182 825 673 648 644 579 508 398 322 320 211 334 211 240 346 300 247 180 160 148 198 254 276 268 322 352 406
10 4 15 6 2 6 1 0 0 6 19 16 8 9 9 19 14 24 16 18 34 10 159 374 354 293 401 485 426 270 144 270 382 590 320 142 174 244 290 328 266 335 370 1803 2144 2629 2588 2254 2313 2441 2473 2627 2564 2383 2233 2034 1848 1665 1237 936 426 486 573 589 569 506 383 390 445 668 334 297 410 333 340 283 195 180 237 248 296 327 378 482 572 682
20 6 7 9 4 0 1 0 0 6 28 29 9 20 23 35 25 25 24 24 61 464 486 166 220 210 123 155 315 310 54 0 0 3 11 7 26 23 103 84 104 180 377 477 2241 2847 2966 2516 2376 2519 2452 2248 2362 2387 2247 2092 1832 1456 952 653 384 375 392 396 668 416 365 478 841 730 563 528 458 473 424 436 383 357 334 393 391 415 479 567 720 811
147 80 11 55 8 14 89 119 13 11 9 35 121 30 19 3 2 4 5 232 8 200 160 209 46 160 172 152 134 144 100 25 108 17 0 0 162 319 409 431 612 480 437 490 997 2398 3232 3064 2660 2664 2647 2388 2085 2066 1983 1797 1709 1620 1366 989 655 550 584 395 370 375 780 970 1097 892 701 642 565 578 583 596 575 556 548 532 560 623 688 746 769 862
43 13 56 3 21 38 18 65 4 7 296 192 26 0 8 7 129 147 159 343 298 115 433 8 169 4 18 8 7 0 0 64 550 543 152 111 141 101 98 124 189 466 518 568 493 692 2039 3030 2810 2670 2637 2384 2167 2092 1919 1808 1649 1530 1432 1227 865 523 472 435 358 866 1090 1019 938 982 860 723 674 642 696 731 735 716 695 710 708 709 740 793 787 874
137 286 77 43 29 24 18 12 3 567 120 155 70 129 10 47 180 269 166 279 370 54 236 385 191 177 298 299 194 45 0 0 0 0 40 25 130 17 6 18 42 184 271 522 929 1802 3537 3252 2761 2844 2669 2364 2126 2114 1885 1832 1626 1546 1513 1450 1213 878 630 373 400 1206 1148 862 1011 1131 920 736 685 667 712 784 813 807 818 806 764 739 810 970 1057 1069
54 68 313 5 279 275 195 172 21 3 0 60 76 214 103 47 77 194 177 143 731 418 76 514 346 262 379 227 13 0 0 0 0 1 97 205 265 166 139 248 234 1364 1745 2160 2662 4108 4452 4715 3593 3024 2848 2558 2618 2810 2726 2434 2101 1654 1386 1526 1442 1110 619 432 385 988 1199 1220 1408 1400 1182 928 747 707 768 857 886 880 851 820 843 883 1078 1162 1204 1199
69 51 45 10 382 13 0 0 34 43 187 266 629 434 81 121 153 385 251 206 538 609 121 545 482 540 242 132 26 49 2 29 10 99 44 356 109 219 199 653 1706 1832 2450 2514 2890 3574 3962 4330 4151 3763 3553 3484 3374 3257 3167 2968 2532 1733 1758 1694 1589 1338 814 502 551 1069 1379 1466 1532 1563 1450 1202 986 883 871 904 924 936 903 898 928 980 1109 1286 1215 1154
17 298 7 0 117 29 77 4 16 21 58 371 205 64 137 132 188 160 28 65 136 448 620 79 405 436 19 16 262 155 0 10 34 219 4 175 233 1056 1322 1554 1916 2342 2412 2565 3117 3716 3889 3949 3962 3806 3709 3672 3676 3601 3546 3391 3100 2386 1793 1808 1817 1285 989 832 724 1365 1538 1466 1481 1599 1580 1404 1181 981 898 888 906 928 950 917 917 907 809 1004 1180 999
21 233 122 43 7 32 2 27 16 20 672 464 193 12 23 65 46 174 85 325 89 416 433 184 36 208 244 15 10 68 13 17 31 84 71 46 244 987 1412 1534 1722 2112 2171 2340 3014 3616 3706 3627 3590 3577 3576 3644 3649 3627 3545 3463 3161 2712 2161 1927 1725 1501 1261 898 790 1317 1605 1476 1549 1570 1554 1456 1304 1156 946 930 889 802 754 848 749 610 464 768 546 542
10 6 2 0 9 19 4 62 32 308 854 503 14 475 416 171 16 82 431 494 765 388 305 394 433 445 609 620 380 225 197 155 369 390 418 430 891 920 945 1066 1126 1405 2031 2948 3165 3185 3571 3339 3669 3487 3563 3610 3626 3569 3479 3279 2835 2286 2098 1988 1804 1392 1047 708 1225 1554 1503 1533 1575 1528 1446 1364 1276 1108 965 772 614 472 556 949 1006 995 562 383 466 485
990 25 10 10 424 229 135 94 5 0 348 399 296 325 772 853 572 1036 1321 517 381 367 472 589 672 610 604 330 342 438 353 347 589 459 616 913 1013 848 1142 856 1041 795 976 2810 3279 3570 3440 3254 3410 3109 3380 3676 3546 3470 3215 2475 1930 1716 1730 1709 1391 889 850 1330 1714 1737 1715 1638 1590 1527 1410 1312 1139 1002 758 663 519 587 810 718 660 662 554 445 242 203
665 392 358 511 495 579 195 292 112 608 556 542 706 591 704 870 842 871 1048 139 362 205 682 678 788 959 813 734 775 748 750 683 763 792 734 806 1715 1912 1900 1914 2188 2350 2646 3004 3169 3261 3208 3167 2486 1892 2505 2842 3249 2702 2035 1572 1364 1314 1238 1148 1542 1791 2166 2202 2092 1942 2028 1891 1782 1457 1372 1267 1149 983 733 677 652 505 493 516 471 516 301 244 120 7
394 622 516 507 354 661 423 580 695 802 664 314 496 490 478 517 641 782 503 46 38 47 153 42 443 561 881 768 963 850 737 790 796 750 759 681 705 1628 1706 1930 1993 1691 2098 2683 2738 3028 3116 2854 1548 1332 1389 2114 1786 1496 1557 1404 1219 1985 2344 2546 2341 2495 2424 2502 2556 2560 2499 2260 1758 1484 1163 1056 978 915 860 789 715 768 743 642 508 416 346 306 289 83
832 827 931 970 474 713 598 741 797 374 14 28 41 72 248 452 473 520 499 329 30 42 449 510 490 42 862 902 852 770 813 962 730 1011 1450 1835 2369 2663 2178 1764 1469 1169 1448 1858 2133 2461 2336 1719 1041 952 986 1000 1169 1252 1390 1770 2097 2397 2603 3001 2736 2548 2502 2346 2052 1843 1856 1850 1777 1723 1647 1498 1441 1334 1226 960 865 776 689 673 702 540 376 317 211 191
308 405 849 965 682 619 159 516 366 148 101 45 33 4 0 332 410 437 400 322 261 112 105 27 47 669 611 938 1516 1605 1457 1461 1338 1530 1888 1924 2178 2314 2145 1741 1526 1547 1382 1582 1623 1757 1423 1395 803 725 608 974 2238 2086 2146 2597 2592 2612 2693 2682 2738 2588 2608 2610 2459 2362 2170 2021 1868 1714 1601 1521 1500 1444 1346 1250 1123 1098 1084 846 393 360 388 268 320 208
212 312 184 147 833 401 117 165 745 122 106 74 52 45 28 2 5 197 126 122 122 170 184 140 168 66 553 862 1162 1336 1761 2155 1968 1590 1670 1553 1680 1691 1748 1655 1317 1019 1187 1220 1005 1164 1074 1108 765 804 1000 1238 2163 2343 2594 2654 2621 2620 2579 2566 2555 2523 2700 2732 2722 2598 2448 2354 2316 2299 2269 2276 2097 1815 1439 1007 806 636 607 830 690 480 207 182 131 236
602 1593 153 408 546 700 683 122 118 621 70 47 20 23 9 130 8 21 25 20 68 60 68 19 12 24 192 742 758 1614 1996 1992 1862 1884 1552 1579 1359 1409 1618 1600 1351 1061 1074 988 1014 1120 922 701 758 1002 1126 1416 1954 2132 1901 2024 2329 2246 1933 1857 1665 1626 2378 2754 2785 2807 2863 2698 2323 2078 1811 1520 1427 986 876 756 552 483 589 610 392 265 7 0 0 325
573 682 173 117 91 82 314 154 667 357 480 19 2 6 181 12 8 5 30 18 9 37 21 9 2 65 274 388 436 1281 1808 1960 2092 1774 1444 1562 1420 1378 1644 1614 1156 1122 1095 1103 1371 1296 1250 649 508 644 701 938 1307 1571 1265 913 927 1374 1320 1257 1254 1290 2253 2707 2450 2338 1959 1602 1691 1835 1662 1281 1035 932 792 644 505 382 292 170 8 0 0 210 106 97
889 1311 623 348 27 42 564 711 877 40 60 66 50 75 49 36 10 75 2 0 0 0 0 0 6 24 23 46 206 827 1821 1734 1628 1692 1995 1809 1851 1749 1652 1697 1332 1036 1090 1325 1463 1424 1365 1098 772 666 732 564 387 646 484 304 596 800 1079 1252 1369 1780 2085 2149 1859 1667 1468 1130 931 949 952 904 826 715 602 528 385 31 0 0 0 0 9 0 0 0
Wind_Speed
nan nan nan nan nan nan nan nan nan nan nan nan nan nan nan nan nan nan nan nan nan nan nan nan nan nan nan nan 16 19 15 nan nan 17 17 14 14 12 10 12 13 13 9 7 7 7 7 7 7 5 6 6 6 6 8 7 6 6 7 6 8 8 10 11 13 12 13 14 15 14 16 15 15 15 14 14 14 15 17 17 19 19 19 19 18 18
nan nan nan nan nan nan nan nan nan nan nan nan nan nan nan nan nan nan nan nan nan nan nan nan nan nan nan nan nan nan nan nan nan 15 17 16 16 12 11 12 12 13 9 9 6 8 6 5 6 6 6 7 8 6 8 7 7 6 6 8 10 10 11 12 14 15 15 16 16 16 17 16 17 16 16 16 16 17 17 19 20 21 21 21 21 20
nan nan nan nan nan nan nan nan nan nan nan nan nan nan nan nan nan nan nan nan nan nan nan nan nan nan nan nan nan nan nan nan nan 18 17 18 17 13 14 14 11 12 12 12 9 9 5 7 5 6 6 8 9 9 9 7 7 7 7 8 9 10 12 13 14 15 16 13 15 16 17 19 18 18 18 19 18 18 19 20 21 19 18 20 21 22
nan nan nan nan nan nan nan nan nan nan nan nan nan nan nan nan nan nan nan nan nan nan nan nan nan nan nan nan nan nan nan nan nan nan 21 21 20 18 17 18 15 14 14 15 14 13 8 7 5 4 5 6 6 8 8 8 9 8 8 8 10 10 12 12 13 12 14 16 17 17 19 20 20 19 19 19 17 17 18 16 19 18 20 21 21 21
nan nan nan nan nan nan nan nan nan nan nan nan nan nan nan nan nan nan nan nan nan nan nan nan nan nan nan nan nan nan nan nan nan nan 25 24 23 21 17 18 20 18 15 16 15 14 12 9 7 6 5 5 6 9 10 11 10 9 11 10 12 11 12 12 13 14 15 15 15 15 17 17 17 17 17 17 15 16 17 18 19 19 20 20 22 22
nan nan nan nan nan nan nan nan nan nan nan nan nan nan nan nan nan nan nan nan nan nan nan nan nan nan nan nan nan 19 nan nan nan nan nan nan 24 22 19 20 19 19 19 20 17 16 16 13 9 6 5 6 6 9 10 12 12 11 12 12 11 11 11 13 14 16 17 18 18 17 17 17 17 17 18 20 22 21 22 22 22 21 23 23 23 23
nan nan nan nan nan nan nan nan nan nan nan nan nan nan nan nan nan nan nan nan nan nan nan nan nan nan nan nan nan 21 20 nan nan nan nan nan 26 22 22 20 19 20 19 20 19 18 17 16 14 11 9 9 9 9 10 12 13 12 12 12 13 12 12 13 15 17 18 18 18 19 19 18 18 nan 18 20 21 23 24 26 24 24 22 24 25 23
nan nan nan nan nan nan nan nan nan nan nan nan nan nan nan nan nan nan nan nan nan nan nan nan nan nan nan nan 25 26 24 22 26 nan nan nan 27 25 24 24 20 20 21 21 21 21 20 20 18 16 14 13 12 11 12 12 12 14 14 15 14 13 13 13 16 19 19 20 19 18 nan 18 nan nan 17 nan nan 20 22 24 25 23 23 24 24 24
nan nan nan nan nan nan nan nan nan nan nan nan nan nan nan nan nan nan nan nan nan nan nan nan nan nan nan nan nan nan nan 21 nan nan nan nan nan nan nan 27 24 22 23 23 22 22 23 23 21 18 17 16 16 14 14 14 13 14 16 17 17 17 16 16 17 19 19 20 20 20 18 18 16 17 17 17 17 20 21 22 22 23 23 24 24 24
nan nan nan nan nan nan nan nan nan nan nan nan nan nan nan nan nan nan nan nan nan nan nan nan nan nan nan nan nan nan nan nan nan nan nan nan nan nan nan 29 28 24 23 24 23 23 24 24 24 21 20 19 18 18 17 17 17 17 18 19 20 20 19 19 19 20 20 21 22 21 20 18 16 17 16 18 18 18 21 21 21 23 25 25 23 22
nan nan nan nan nan nan nan nan nan nan nan nan nan nan nan nan nan nan nan nan nan nan nan nan nan nan 25 nan nan nan nan nan nan nan nan nan nan nan nan 31 29 26 22 21 22 22 24 25 26 24 24 23 21 20 21 21 21 21 22 22 23 22 22 22 22 23 23 23 23 23 22 nan 20 19 20 19 19 20 21 24 24 26 26 25 24 25
nan nan nan nan nan nan nan nan nan nan nan nan nan nan nan nan nan nan nan nan nan nan nan nan nan nan nan nan nan nan nan nan nan nan nan nan nan nan nan nan 31 27 19 20 23 23 25 25 27 27 25 24 25 25 24 24 25 25 25 27 26 24 25 25 25 26 25 25 24 24 24 23 22 nan nan nan 21 22 23 25 26 26 25 25 25 26
nan nan nan nan nan nan nan nan nan nan nan nan nan nan nan nan nan nan nan nan nan nan nan nan nan nan nan nan 32 nan nan nan nan nan nan nan nan nan nan nan 34 29 23 21 22 23 25 26 28 28 25 24 28 28 28 26 27 27 28 31 30 27 27 28 28 28 27 27 26 26 25 24 24 nan nan 23 23 23 24 27 28 27 26 26 26 25
nan nan nan nan nan nan nan nan nan nan nan nan nan nan nan nan nan nan nan nan nan nan nan nan nan nan nan nan nan 30 25 29 nan nan nan nan nan nan 26 nan 31 30 26 24 26 26 26 25 26 27 26 26 27 29 29 28 27 28 29 32 33 31 30 30 30 30 30 28 27 26 26 25 25 nan nan 25 25 25 28 29 29 29 28 28 27 27
nan nan nan nan nan nan nan nan nan nan nan nan nan nan nan nan nan nan nan nan nan nan nan nan nan nan nan nan nan nan nan nan 26 27 nan nan nan nan 30 25 26 29 28 27 29 29 28 26 25 25 27 28 28 29 29 28 28 29 30 32 33 32 31 32 32 31 30 28 27 26 26 27 26 26 26 26 27 29 29 30 31 30 30 29 29 29
nan nan nan nan nan nan nan nan nan nan nan nan nan nan nan nan nan nan nan nan nan nan nan nan nan nan nan nan nan nan nan nan nan nan nan nan nan nan 36 31 30 33 33 30 30 30 29 27 25 26 27 29 30 30 29 29 29 29 29 31 32 32 32 33 33 31 30 27 26 26 27 26 27 26 27 27 28 29 nan nan nan 31 31 30 29 29
nan nan nan nan nan nan nan nan nan nan nan nan nan nan nan nan nan nan nan nan nan nan nan nan nan nan nan nan nan nan nan nan nan nan nan nan nan nan 42 40 nan 37 36 32 32 32 31 28 27 27 29 29 31 31 30 30 30 30 30 29 29 29 30 32 31 31 30 27 26 26 nan nan 27 29 29 nan 29 30 31 32 33 nan nan 30 30 29
nan nan nan nan nan nan nan nan nan nan nan nan nan nan nan nan nan nan nan nan nan nan nan nan nan nan nan nan nan nan nan nan nan nan nan nan nan 42 41 39 37 37 38 35 34 34 32 29 29 27 28 30 31 31 30 30 29 29 29 29 28 28 31 31 31 31 31 30 28 26 27 28 28 29 29 nan nan 30 32 nan nan nan nan 29 30 32
nan nan nan nan nan nan nan nan nan nan nan nan nan nan nan nan nan nan nan nan nan nan nan nan nan nan nan nan nan nan nan nan nan 32 34 nan 38 38 37 34 nan 32 37 35 33 32 30 28 28 27 28 29 29 29 29 29 29 27 26 26 26 29 31 32 31 30 31 32 30 27 27 28 28 29 29 30 29 30 nan 32 32 32 32 32 32 31
nan nan nan nan nan nan nan nan nan nan nan nan nan nan nan nan nan nan nan nan nan nan nan nan nan nan nan nan nan nan nan nan nan 37 37 37 36 35 34 30 28 30 36 35 33 31 30 30 28 28 29 30 30 29 28 30 28 28 27 25 25 25 28 30 30 31 32 32 32 29 28 27 28 29 29 28 28 30 nan nan nan nan 31 nan 32 32
nan nan nan nan nan nan nan nan nan nan nan nan nan nan nan nan nan nan nan nan nan nan nan nan nan nan nan nan nan nan nan nan nan nan nan nan 36 38 35 33 31 34 34 31 31 30 29 28 26 25 27 29 29 29 29 29 30 29 28 27 28 30 30 31 31 32 32 32 31 32 30 29 29 29 27 27 29 30 32 33 32 nan nan nan 30 31
nan nan nan nan nan nan nan nan nan nan nan nan nan nan nan nan nan nan nan nan nan nan nan nan nan nan nan 24 nan nan nan nan nan nan nan nan nan 35 37 33 33 35 34 31 28 28 27 26 24 24 26 27 30 30 30 29 30 31 31 32 33 31 31 32 32 33 32 30 31 32 31 31 30 29 27 29 31 33 35 34 33 32 31 nan nan 30
nan nan nan nan nan nan nan nan nan nan nan nan nan nan nan nan nan nan nan nan nan nan nan nan nan nan nan nan nan nan nan nan nan nan nan nan nan nan nan 37 35 36 34 31 28 26 26 25 25 26 29 31 33 33 32 31 32 33 34 36 35 34 33 33 33 33 33 32 32 32 33 34 33 31 29 31 33 35 36 35 33 32 31 31 30 30
nan nan nan nan nan nan nan nan nan nan nan nan nan nan nan nan nan nan nan nan nan nan nan nan nan nan nan 26 nan nan nan nan nan nan nan nan nan nan nan 39 35 32 31 32 30 26 24 23 24 26 28 31 33 34 36 34 33 35 36 37 37 36 35 34 33 33 34 34 33 33 34 34 34 33 31 32 35 37 37 36 nan nan nan nan nan nan
nan nan nan nan nan nan nan nan nan nan nan nan nan nan nan nan nan nan nan 26 nan nan nan nan nan nan nan nan nan nan nan nan nan nan nan nan nan nan nan 40 37 33 31 31 30 27 26 26 27 28 30 33 37 38 39 38 36 37 38 38 37 36 37 35 33 34 34 35 35 33 33 33 33 31 30 32 35 38 nan nan nan nan nan nan nan nan
nan 32 nan nan nan nan nan nan nan nan nan nan nan nan nan nan nan nan nan nan nan nan nan nan nan nan nan 32 nan nan nan nan nan nan nan nan nan nan nan 37 36 34 30 29 29 28 29 30 31 32 33 35 37 39 40 39 39 39 40 40 37 36 36 35 33 33 34 35 35 33 33 32 31 30 31 34 37 nan nan nan nan nan nan nan nan nan
nan nan nan nan nan nan nan nan nan nan nan nan nan nan nan nan nan nan nan nan nan 20 nan nan nan nan nan nan nan nan nan nan nan nan nan nan 43 nan nan 33 32 30 26 27 29 31 32 32 33 35 37 38 39 39 39 40 41 41 41 40 38 37 36 34 34 34 35 36 35 32 32 31 30 32 33 35 38 nan nan nan nan nan nan nan nan nan
35 nan nan nan nan nan 30 nan nan nan nan nan nan nan nan nan nan nan nan nan nan nan nan 25 nan nan nan nan nan nan nan nan nan nan nan nan nan nan 38 32 30 29 26 26 28 30 33 35 34 34 37 40 41 41 40 39 41 42 43 42 40 39 36 33 35 36 36 36 33 33 34 33 32 34 36 36 38 39 nan nan nan nan 37 37 nan nan
nan nan nan nan 28 nan nan nan nan nan nan nan nan nan nan nan nan nan nan nan 34 nan nan nan nan 33 nan nan nan nan nan nan nan 46 44 39 39 40 37 30 28 31 30 30 30 31 32 35 35 36 37 40 42 43 41 40 39 40 41 41 41 40 36 35 36 36 35 33 32 34 35 32 31 34 37 37 39 40 40 nan nan 37 37 nan nan 37
nan nan nan nan nan nan nan nan nan nan nan nan nan nan nan nan nan nan nan nan 32 29 nan 26 26 29 nan nan nan nan 44 nan nan nan nan nan nan nan 32 30 31 32 33 32 33 33 33 36 38 38 39 39 42 43 40 39 39 41 42 42 41 40 36 38 37 35 32 29 31 33 32 30 31 35 37 38 39 nan nan nan nan 38 38 39 40 41
nan 43 nan nan nan nan nan nan nan nan nan nan nan nan nan nan nan nan nan nan nan nan 32 32 28 25 27 nan nan 42 49 nan nan nan nan 43 39 36 35 33 32 35 34 31 32 34 35 36 38 39 39 39 40 42 40 38 39 41 42 42 42 41 40 40 38 35 32 28 29 32 30 29 31 34 37 38 40 40 41 40 40 40 40 41 42 44
nan nan nan nan nan nan nan nan nan nan nan nan nan nan nan nan nan nan nan nan nan nan nan 38 33 34 33 35 40 45 nan nan nan nan nan nan nan 41 38 35 35 35 36 35 33 33 36 37 37 39 39 40 40 39 37 35 36 39 42 44 45 45 43 40 37 36 34 29 30 32 32 33 33 35 36 39 40 41 41 42 42 41 42 43 43 44
nan nan nan nan nan nan nan nan nan nan nan nan nan nan nan nan nan nan nan nan nan nan 35 35 31 32 36 44 47 43 49 50 52 55 58 57 52 45 37 33 33 35 35 38 38 37 37 38 37 38 39 39 39 36 34 36 40 45 49 49 48 50 45 36 39 41 38 35 34 35 33 33 35 36 37 39 41 42 42 43 42 43 44 44 44 45
nan nan nan nan nan nan nan nan nan nan nan nan nan nan nan nan nan nan nan nan nan 35 32 36 38 37 43 47 48 47 nan nan nan nan nan nan nan nan 33 nan 32 34 36 36 38 39 40 39 36 36 39 39 37 36 37 46 49 49 49 48 48 48 45 43 44 43 39 38 37 36 33 36 38 37 38 40 42 43 44 44 43 44 44 44 45 46
43 nan nan nan nan nan nan 45 nan nan nan nan 42 nan nan nan nan nan nan 40 nan 44 46 48 nan 43 42 45 50 50 nan nan 60 nan nan nan 37 35 36 36 34 35 36 34 34 37 38 37 35 35 37 36 37 43 47 45 44 46 45 45 45 43 42 43 41 31 33 36 34 32 35 39 39 37 38 40 42 44 45 44 44 43 44 45 46 47
nan nan nan nan nan nan nan nan nan nan 44 46 nan nan nan nan 50 46 40 43 46 44 41 nan 35 nan nan nan nan nan nan nan 59 58 55 45 39 39 nan 40 36 36 35 33 34 35 38 36 35 39 38 38 44 43 44 43 44 46 46 43 43 43 45 40 28 24 30 34 32 32 37 39 38 37 38 40 42 45 45 46 46 44 44 45 46 47
44 47 nan nan nan nan nan nan nan 51 50 49 nan 49 nan nan 48 47 44 42 43 nan 47 41 41 42 40 42 49 nan nan nan nan nan nan nan 35 nan nan nan nan 36 35 35 38 37 35 37 38 41 41 42 44 44 43 42 42 46 47 41 35 33 31 23 21 26 30 30 33 35 36 37 37 38 40 42 44 45 46 47 46 45 46 47 47 48
nan nan 47 nan 51 53 50 50 nan nan nan nan nan 45 45 nan nan 46 48 46 46 50 nan 48 49 53 54 55 nan nan nan nan nan nan nan 42 44 45 46 42 39 41 42 42 39 38 37 38 42 45 45 44 44 45 44 44 47 50 48 42 40 36 31 27 26 29 29 31 34 34 35 37 39 41 42 45 46 47 49 50 49 48 49 49 49 48
nan nan nan nan 39 nan nan nan nan nan 50 51 46 45 nan 47 49 52 52 49 49 53 55 57 52 52 57 59 nan nan nan nan nan nan nan 39 43 46 47 47 44 40 41 40 37 36 35 38 44 46 46 45 47 45 46 47 51 51 43 39 40 39 37 36 33 34 34 35 36 36 37 39 41 43 45 47 48 51 52 50 47 45 47 47 46 45
nan 34 nan nan 32 nan nan nan nan nan nan 44 49 nan 51 46 49 51 nan nan 51 54 53 nan 59 54 nan nan 61 62 nan nan nan 44 nan 43 45 49 48 48 42 36 36 37 38 37 38 40 47 48 47 46 46 47 48 48 49 47 44 42 41 39 38 37 35 36 36 36 37 38 39 41 43 44 45 46 46 46 45 43 42 44 45 45 47 47
nan 41 37 nan nan nan nan nan nan nan 38 38 40 nan nan nan nan 47 nan 47 nan 56 64 64 nan 64 59 nan nan nan nan nan nan nan nan nan 43 42 42 40 38 36 36 37 39 41 40 42 47 51 51 48 48 47 46 44 44 41 41 43 42 39 39 37 35 35 37 38 39 39 40 41 44 45 45 48 49 44 37 43 49 48 47 47 48 47
nan nan nan nan nan nan nan nan nan 37 37 37 nan 47 45 46 nan nan 38 39 41 49 60 59 61 60 60 60 59 58 55 52 44 41 38 36 36 35 37 39 39 38 37 37 40 40 40 43 52 57 57 54 49 45 43 41 38 37 38 40 39 38 37 35 34 36 37 38 38 39 40 43 45 48 49 50 52 53 50 51 54 52 52 49 47 45
48 nan nan nan 40 37 36 nan nan nan 34 38 42 45 46 44 38 38 40 41 43 46 51 51 51 50 50 49 48 48 47 44 40 38 38 39 41 41 40 42 41 40 38 37 37 37 41 47 51 49 55 53 46 40 39 38 37 37 37 37 36 36 35 34 36 36 37 37 38 40 43 46 47 48 48 48 49 52 52 50 48 48 51 55 52 49
48 50 47 46 43 40 36 35 33 33 32 39 44 44 39 41 40 42 42 42 40 42 44 45 48 46 45 46 45 42 40 39 39 39 38 38 38 41 41 42 44 43 41 40 43 43 47 55 59 48 32 37 38 36 38 36 33 34 35 33 35 38 38 39 37 37 38 38 40 45 45 45 48 48 48 49 51 54 55 54 52 51 49 52 56 nan
40 43 39 40 38 42 38 39 40 37 39 46 48 45 44 45 45 43 47 nan nan nan 40 nan 46 45 43 43 42 39 37 36 36 36 36 32 34 34 37 38 39 39 38 38 43 45 45 53 58 49 27 27 36 35 35 31 31 33 35 35 42 44 42 41 40 39 39 40 44 48 48 48 49 50 51 52 53 53 54 52 51 51 53 57 58 nan
35 36 37 42 39 41 46 53 50 49 nan nan nan nan 46 45 44 44 44 44 nan nan 44 44 43 nan 40 41 39 37 37 37 35 37 38 37 35 35 41 43 41 40 41 40 41 45 47 49 54 50 30 26 39 35 33 34 34 36 35 38 43 43 41 40 39 39 41 44 46 49 50 51 51 51 52 52 52 54 54 54 54 55 56 58 58 57
43 43 42 40 37 45 39 41 49 49 39 nan nan nan nan 47 46 43 44 43 42 42 44 nan nan 41 40 40 39 39 40 36 37 40 40 39 38 36 36 39 39 40 42 42 41 46 46 48 52 50 37 27 40 40 40 39 35 37 42 43 41 39 38 38 38 38 41 46 49 51 53 55 53 51 50 51 53 52 52 53 56 57 57 57 58 58
42 40 48 42 43 41 39 31 36 37 33 nan nan nan nan nan nan 44 44 43 42 40 39 40 40 nan 40 40 38 39 39 38 38 39 40 38 37 36 36 38 40 44 44 42 41 47 47 49 52 49 40 29 42 45 42 41 38 41 45 43 38 37 38 39 41 42 44 48 51 53 53 53 54 54 52 51 51 51 52 54 55 57 57 57 58 58
43 42 44 38 44 44 48 45 43 40 nan nan nan nan nan 42 nan nan nan nan nan nan nan nan nan nan 38 37 37 39 41 38 37 36 38 38 38 38 38 39 40 42 43 43 41 45 47 44 48 49 45 28 40 45 42 41 41 44 46 42 38 38 40 42 43 44 45 49 52 52 52 52 52 53 55 54 54 52 51 50 52 58 nan nan nan 55
49 50 45 46 nan nan 44 43 47 48 41 nan nan nan 40 nan nan nan nan nan nan nan nan nan nan nan 37 36 37 39 41 39 37 40 41 38 38 38 38 39 40 43 43 42 43 45 48 49 47 45 45 34 38 49 49 47 46 47 47 45 42 40 41 42 43 44 47 49 51 54 53 52 53 55 56 56 56 57 56 56 nan nan nan 57 54 nan
47 46 47 47 nan nan 45 46 48 nan nan nan nan nan nan nan nan nan nan nan nan nan nan nan nan nan nan nan 33 36 38 38 37 38 40 38 37 37 37 39 42 44 43 42 44 45 48 50 53 55 49 38 38 47 48 42 49 51 49 45 44 43 43 44 45 47 48 50 52 54 54 53 54 55 57 58 58 nan nan nan nan nan nan nan nan nan
Wind_Direction
nan nan nan nan nan nan nan nan nan nan nan nan nan nan nan nan nan nan nan nan nan nan nan nan nan nan nan nan 323 323 325 nan nan 319 315 316 321 323 326 323 328 339 356 5 359 352 347 350 357 5 353 329 332 336 342 344 360 3 360 356 8 5 356 353 356 356 357 360 6 3 359 357 354 352 349 347 347 349 350 353 349 346 349 350 351 346
nan nan nan nan nan nan nan nan nan nan nan nan nan nan nan nan nan nan nan nan nan nan nan nan nan nan nan nan nan nan nan nan nan 316 317 319 317 317 319 318 318 328 320 343 342 347 344 2 8 359 353 353 342 359 356 356 7 8 2 6 13 5 4 5 4 1 4 9 6 360 1 357 0 358 353 354 351 349 350 352 350 349 351 351 345 342
nan nan nan nan nan nan nan nan nan nan nan nan nan nan nan nan nan nan nan nan nan nan nan nan nan nan nan nan nan nan nan nan nan 319 320 317 319 315 313 313 304 313 320 328 336 346 354 2 7 7 2 3 356 359 1 5 359 5 12 19 19 5 5 8 9 4 5 6 3 1 4 3 8 4 356 353 353 350 351 351 352 348 348 343 340 343
nan nan nan nan nan nan nan nan nan nan nan nan nan nan nan nan nan nan nan nan nan nan nan nan nan nan nan nan nan nan nan nan nan nan 320 319 323 317 320 317 315 316 319 325 333 342 351 356 1 6 7 357 351 352 350 2 359 3 8 12 6 2 2 3 5 360 357 359 3 6 7 9 3 2 359 354 344 336 329 323 324 330 328 335 338 336
nan nan nan nan nan nan nan nan nan nan nan nan nan nan nan nan nan nan nan nan nan nan nan nan nan nan nan nan nan nan nan nan nan nan 315 320 317 316 315 316 317 315 315 319 326 333 337 346 352 357 356 346 351 350 348 352 352 358 357 359 359 355 357 355 354 348 348 350 354 2 11 6 1 358 353 351 347 335 332 330 328 331 328 327 330 331
nan nan nan nan nan nan nan nan nan nan nan nan nan nan nan nan nan nan nan nan nan nan nan nan nan nan nan nan nan 299 nan nan nan nan nan nan 314 314 317 320 315 310 315 315 325 329 329 334 330 337 339 342 340 345 340 338 341 341 346 341 345 345 349 345 347 344 341 343 347 352 355 360 353 353 350 345 347 345 342 343 341 335 330 330 328 329
nan nan nan nan nan nan nan nan nan nan nan nan nan nan nan nan nan nan nan nan nan nan nan nan nan nan nan nan nan 298 294 nan nan nan nan nan 314 316 314 316 317 314 314 310 314 316 317 322 326 337 341 337 331 332 323 321 326 330 332 329 331 336 342 340 340 339 335 336 342 345 347 348 346 nan 348 345 342 341 344 338 334 334 333 328 325 328
nan nan nan nan nan nan nan nan nan nan nan nan nan nan nan nan nan nan nan nan nan nan nan nan nan nan nan nan 311 302 296 301 305 nan nan nan 313 315 311 314 314 316 315 311 312 316 316 319 327 336 337 332 329 319 315 312 314 320 325 322 323 326 330 334 332 335 332 333 334 335 nan 333 nan nan 340 nan nan 335 333 326 330 332 332 329 327 327
nan nan nan nan nan nan nan nan nan nan nan nan nan nan nan nan nan nan nan nan nan nan nan nan nan nan nan nan nan nan nan 311 nan nan nan nan nan nan nan 309 313 320 317 314 312 316 315 315 322 326 326 328 324 317 319 315 312 311 315 316 317 322 324 328 329 327 327 327 322 324 321 324 330 330 333 328 326 328 328 325 326 324 325 324 320 322
nan nan nan nan nan nan nan nan nan nan nan nan nan nan nan nan nan nan nan nan nan nan nan nan nan nan nan nan nan nan nan nan nan nan nan nan nan nan nan 303 306 313 311 315 317 314 312 312 317 317 315 317 316 313 314 311 307 309 308 312 316 319 320 322 322 319 316 316 312 312 315 318 325 324 324 326 330 329 327 328 326 321 317 316 316 319
nan nan nan nan nan nan nan nan nan nan nan nan nan nan nan nan nan nan nan nan nan nan nan nan nan nan 284 nan nan nan nan nan nan nan nan nan nan nan nan 302 304 311 312 314 317 317 315 311 312 307 310 311 306 305 305 305 306 306 306 309 311 313 312 314 314 313 310 309 306 310 314 nan 321 321 321 320 326 328 327 328 326 319 318 316 315 318
nan nan nan nan nan nan nan nan nan nan nan nan nan nan nan nan nan nan nan nan nan nan nan nan nan nan nan nan nan nan nan nan nan nan nan nan nan nan nan nan 307 314 316 316 318 320 318 307 308 306 306 306 306 300 301 300 302 302 302 303 305 305 309 309 310 307 307 306 307 309 312 315 318 nan nan nan 322 325 324 324 320 320 316 314 315 315
nan nan nan nan nan nan nan nan nan nan nan nan nan nan nan nan nan nan nan nan nan nan nan nan nan nan nan nan 319 nan nan nan nan nan nan nan nan nan nan nan 303 311 321 321 319 317 318 312 309 309 306 303 305 301 300 299 299 299 300 302 303 306 307 308 306 306 306 305 309 309 311 311 311 nan nan 316 319 321 323 322 318 316 318 315 310 313
nan nan nan nan nan nan nan nan nan nan nan nan nan nan nan nan nan nan nan nan nan nan nan nan nan nan nan nan nan 318 325 321 nan nan nan nan nan nan 318 nan 304 317 328 325 320 316 317 311 308 307 305 306 305 303 300 298 296 296 299 301 303 307 307 307 307 306 307 306 308 307 308 309 310 nan nan 313 314 316 317 319 319 319 319 316 317 316
nan nan nan nan nan nan nan nan nan nan nan nan nan nan nan nan nan nan nan nan nan nan nan nan nan nan nan nan nan nan nan nan 309 303 nan nan nan nan 321 314 305 317 322 319 317 316 316 312 306 305 306 308 307 306 303 300 299 299 301 302 304 306 310 311 312 308 307 307 306 307 307 305 305 307 310 314 313 315 316 317 318 319 319 318 318 317
nan nan nan nan nan nan nan nan nan nan nan nan nan nan nan nan nan nan nan nan nan nan nan nan nan nan nan nan nan nan nan nan nan nan nan nan nan nan 311 316 314 315 316 315 315 316 316 311 308 308 306 309 309 310 306 306 304 305 307 308 309 312 314 316 314 311 310 308 307 306 305 305 305 307 309 311 313 315 nan nan nan 321 320 320 319 317
nan nan nan nan nan nan nan nan nan nan nan nan nan nan nan nan nan nan nan nan nan nan nan nan nan nan nan nan nan nan nan nan nan nan nan nan nan nan 316 323 nan 315 316 316 317 315 315 311 314 314 310 311 313 313 314 313 313 315 312 312 311 312 313 316 316 313 310 310 306 308 nan nan 306 310 311 nan 316 320 320 321 320 nan nan 319 317 314
nan nan nan nan nan nan nan nan nan nan nan nan nan nan nan nan nan nan nan nan nan nan nan nan nan nan nan nan nan nan nan nan nan nan nan nan nan 310 313 317 319 317 319 321 318 314 318 318 319 317 314 318 319 318 316 315 312 314 315 315 315 314 316 316 315 314 312 311 310 307 307 308 311 312 314 nan nan 318 318 nan nan nan nan 317 316 315
nan nan nan nan nan nan nan nan nan nan nan nan nan nan nan nan nan nan nan nan nan nan nan nan nan nan nan nan nan nan nan nan nan 293 292 nan 292 296 307 319 nan 321 321 319 318 311 314 315 319 318 318 319 317 317 315 310 309 309 312 316 317 318 316 316 314 314 310 310 309 309 312 312 312 312 314 317 317 315 nan 320 320 319 319 317 315 314
nan nan nan nan nan nan nan nan nan nan nan nan nan nan nan nan nan nan nan nan nan nan nan nan nan nan nan nan nan nan nan nan nan 281 284 288 294 298 303 305 315 314 318 318 315 310 309 313 317 318 316 316 316 316 314 311 307 309 311 315 315 311 309 310 312 312 312 311 309 311 312 313 316 316 315 314 315 318 nan nan nan nan 320 nan 313 313
nan nan nan nan nan nan nan nan nan nan nan nan nan nan nan nan nan nan nan nan nan nan nan nan nan nan nan nan nan nan nan nan nan nan nan nan 298 301 299 301 305 307 307 314 309 308 310 313 315 314 313 313 311 311 311 312 313 309 307 311 313 314 314 313 312 310 311 311 311 311 313 317 318 321 317 317 318 320 323 325 325 nan nan nan 315 315
nan nan nan nan nan nan nan nan nan nan nan nan nan nan nan nan nan nan nan nan nan nan nan nan nan nan nan 249 nan nan nan nan nan nan nan nan nan 291 293 294 299 301 305 308 309 312 315 317 320 314 308 306 306 309 312 312 310 309 310 311 312 313 313 314 311 310 311 310 310 312 316 319 320 318 317 318 321 325 325 326 325 322 317 nan nan 317
nan nan nan nan nan nan nan nan nan nan nan nan nan nan nan nan nan nan nan nan nan nan nan nan nan nan nan nan nan nan nan nan nan nan nan nan nan nan nan 302 303 306 307 310 310 313 314 319 322 317 312 311 311 311 310 309 311 311 311 310 311 313 313 313 313 311 311 309 310 315 318 320 323 322 321 324 326 328 326 324 324 321 318 316 315 315
nan nan nan nan nan nan nan nan nan nan nan nan nan nan nan nan nan nan nan nan nan nan nan nan nan nan nan 251 nan nan nan nan nan nan nan nan nan nan nan 294 305 307 306 302 303 307 311 316 314 309 310 311 311 312 313 311 309 307 310 311 310 314 314 313 313 312 310 309 313 317 319 322 325 324 324 326 329 328 323 322 nan nan nan nan nan nan
nan nan nan nan nan nan nan nan nan nan nan nan nan nan nan nan nan nan nan 223 nan nan nan nan nan nan nan nan nan nan nan nan nan nan nan nan nan nan nan 292 296 304 306 302 307 315 315 317 318 319 318 319 319 318 315 313 311 308 309 309 311 313 314 313 312 313 310 309 315 319 318 321 322 321 319 322 325 326 nan nan nan nan nan nan nan nan
nan 198 nan nan nan nan nan nan nan nan nan nan nan nan nan nan nan nan nan nan nan nan nan nan nan nan nan 266 nan nan nan nan nan nan nan nan nan nan nan 290 294 296 301 303 302 316 321 324 324 322 322 321 318 317 316 314 313 310 308 310 310 311 311 311 313 312 309 309 313 313 316 318 318 315 314 316 319 nan nan nan nan nan nan nan nan nan
nan nan nan nan nan nan nan nan nan nan nan nan nan nan nan nan nan nan nan nan nan 238 nan nan nan nan nan nan nan nan nan nan nan nan nan nan 284 nan nan 294 296 294 291 299 302 315 317 318 328 327 325 324 321 316 314 315 315 313 309 309 309 308 309 310 313 311 307 309 307 307 311 316 317 316 317 318 320 nan nan nan nan nan nan nan nan nan
216 nan nan nan nan nan 219 nan nan nan nan nan nan nan nan nan nan nan nan nan nan nan nan 259 nan nan nan nan nan nan nan nan nan nan nan nan nan nan 291 297 298 295 292 295 297 307 317 323 326 327 326 324 321 318 316 314 316 313 310 311 309 308 311 311 312 307 305 305 304 305 311 315 319 317 320 321 319 316 nan nan nan nan 311 311 nan nan
nan nan nan nan 227 nan nan nan nan nan nan nan nan nan nan nan nan nan nan nan 258 nan nan nan nan 288 nan nan nan nan nan nan nan 277 278 278 275 277 283 291 299 303 300 302 305 313 317 319 323 325 325 323 320 318 318 318 316 309 307 308 308 310 313 307 304 301 303 305 305 308 311 312 311 312 317 320 316 312 312 nan nan 314 315 nan nan 319
nan nan nan nan nan nan nan nan nan nan nan nan nan nan nan nan nan nan nan nan 238 239 nan 280 291 290 nan nan nan nan 285 nan nan nan nan nan nan nan 275 286 299 301 300 306 310 314 320 323 322 322 321 318 317 317 317 319 316 311 309 308 308 308 302 298 297 297 300 301 304 304 308 311 311 312 316 317 315 nan nan nan nan 318 320 320 321 323
nan 209 nan nan nan nan nan nan nan nan nan nan nan nan nan nan nan nan nan nan nan nan 245 266 275 274 272 nan nan 276 279 nan nan nan nan 280 277 275 277 283 289 297 301 304 309 312 316 318 319 317 317 317 316 317 320 319 314 309 307 303 299 294 289 287 290 295 302 298 299 304 313 316 314 313 315 315 314 314 315 317 319 321 321 321 323 326
nan nan nan nan nan nan nan nan nan nan nan nan nan nan nan nan nan nan nan nan nan nan nan 257 259 257 263 271 268 271 nan nan nan nan nan nan nan 280 283 281 277 278 284 301 304 306 308 311 313 316 317 317 316 316 318 314 306 302 291 282 275 274 276 282 291 298 297 296 299 309 316 318 317 315 315 314 316 316 316 317 319 320 321 323 326 328
nan nan nan nan nan nan nan nan nan nan nan nan nan nan nan nan nan nan nan nan nan nan 260 265 264 256 254 263 267 266 269 268 268 269 271 274 278 283 284 278 272 274 277 284 295 301 309 314 315 315 316 315 316 315 312 303 289 280 276 272 271 273 276 280 290 294 295 291 297 303 309 319 321 318 317 318 317 316 316 317 319 321 322 325 327 326
nan nan nan nan nan nan nan nan nan nan nan nan nan nan nan nan nan nan nan nan nan 228 240 249 256 257 256 255 260 261 nan nan nan nan nan nan nan nan 273 nan 274 276 275 277 288 303 310 314 311 312 314 316 315 311 292 287 294 301 303 303 303 302 304 295 284 287 292 292 294 300 315 321 322 321 321 319 317 316 317 318 321 321 322 324 324 325
218 nan nan nan nan nan nan 209 nan nan nan nan 216 nan nan nan nan nan nan 229 nan 235 241 242 nan 243 248 255 261 263 nan nan 265 nan nan nan 272 273 275 279 282 284 285 287 289 297 307 312 311 301 300 307 302 289 291 299 300 302 303 304 307 307 295 276 276 289 298 298 298 306 314 318 321 321 319 317 316 316 317 318 318 320 321 322 323 323
nan nan nan nan nan nan nan nan nan nan 209 210 nan nan nan nan 220 217 218 232 236 238 243 nan 250 nan nan nan nan nan nan nan 259 264 271 274 275 276 nan 283 286 289 292 295 296 297 301 308 307 303 303 291 288 294 296 299 302 302 302 303 303 301 296 287 289 308 312 308 309 311 313 317 319 318 315 313 312 313 315 315 317 320 320 320 321 322
207 209 nan nan nan nan nan nan nan 218 213 222 nan 220 nan nan 225 228 225 229 234 nan 240 244 249 249 248 248 248 nan nan nan nan nan nan nan 269 nan nan nan nan 288 292 294 293 292 292 300 301 298 294 292 292 293 292 294 294 290 287 284 283 284 282 284 319 330 321 315 314 313 313 314 315 314 312 311 311 314 314 316 318 320 319 319 319 319
nan nan 214 nan 216 220 224 219 nan nan nan nan nan 226 228 nan nan 229 226 223 227 231 nan 243 248 250 252 253 nan nan nan nan nan nan nan 258 265 270 273 274 274 277 283 284 281 282 282 284 289 293 295 294 291 287 286 288 293 292 289 295 300 302 303 306 319 323 318 314 315 315 312 313 314 314 314 312 314 316 315 317 319 319 317 317 317 316
nan nan nan nan 226 nan nan nan nan nan 230 234 232 227 nan 237 235 233 228 225 225 226 233 242 241 247 253 254 nan nan nan nan nan nan nan 265 266 273 275 272 271 277 280 282 283 285 283 283 289 293 293 293 288 288 289 291 288 286 301 306 306 303 306 311 314 314 316 318 319 315 313 315 315 314 315 316 318 319 319 320 319 317 315 317 317 315
nan 232 nan nan 238 nan nan nan nan nan nan 235 236 nan 231 234 236 237 nan nan 228 226 232 nan 241 247 nan nan 259 259 nan nan nan 273 nan 270 267 269 274 276 278 277 277 279 282 286 287 284 285 290 293 292 291 291 290 292 296 302 301 304 302 305 311 313 311 311 316 316 313 312 311 311 312 311 314 315 314 317 320 316 314 315 314 312 309 303
nan 229 234 nan nan nan nan nan nan nan 235 232 240 nan nan nan nan 241 nan 240 nan 228 233 238 nan 246 250 nan nan nan nan nan nan nan nan nan 267 276 280 283 286 287 286 287 288 288 285 286 287 293 293 292 293 289 288 288 290 295 299 301 303 308 311 312 308 307 309 309 308 307 307 307 309 310 304 297 296 299 306 308 306 305 306 306 302 301
nan nan nan nan nan nan nan nan nan 241 237 231 nan 238 241 241 nan nan 241 242 237 233 238 241 241 242 249 253 255 258 260 259 262 263 262 261 268 281 279 281 282 282 281 283 289 287 287 288 289 295 294 293 290 284 282 284 288 291 292 295 303 310 307 304 304 305 304 305 305 304 305 301 297 299 303 305 306 310 310 306 304 302 300 301 304 304
230 nan nan nan 228 229 238 nan nan nan 234 233 236 235 238 248 250 251 245 241 242 242 246 248 250 247 250 255 256 256 254 252 253 253 261 267 274 277 281 284 283 283 284 285 283 282 287 284 281 293 297 287 278 275 276 280 284 286 290 297 301 299 300 303 303 302 301 301 302 299 296 297 301 300 300 302 301 300 297 296 298 301 304 306 309 307
223 230 225 223 226 236 235 236 239 243 241 241 248 251 244 250 254 252 253 250 242 249 257 257 254 255 253 250 246 248 250 252 253 259 267 271 277 280 281 283 285 286 286 289 288 288 289 288 294 302 289 276 270 269 269 276 284 288 293 299 297 297 294 296 297 295 294 297 296 292 294 295 294 296 298 298 297 298 300 302 304 303 302 305 307 nan
220 233 233 231 225 232 237 238 236 237 245 248 250 255 255 252 253 259 258 nan nan nan 253 nan 252 253 254 254 252 250 252 254 264 269 271 268 272 282 289 284 284 286 286 287 283 286 288 289 295 301 291 264 270 270 269 277 289 292 293 293 286 282 283 283 284 286 288 291 293 294 297 299 299 299 299 299 300 300 300 300 299 301 307 307 305 nan
233 236 237 238 232 225 234 236 234 231 nan nan nan nan 251 252 251 252 256 258 nan nan 256 257 255 nan 255 258 260 263 264 267 268 267 266 267 269 273 279 279 281 279 278 279 279 281 288 288 291 299 295 270 271 270 267 278 290 292 298 296 286 282 283 283 285 289 292 293 296 299 302 301 302 302 302 301 301 302 303 304 305 306 305 304 305 305
234 232 238 238 238 239 235 226 234 234 221 nan nan nan nan 250 249 248 249 251 254 255 257 nan nan 260 260 260 263 270 267 266 269 269 271 270 270 272 276 279 281 281 282 284 287 288 290 289 292 300 294 264 259 263 270 276 284 294 302 300 289 282 282 282 286 291 294 298 302 303 304 304 304 304 300 299 302 302 303 305 305 305 304 304 303 304
236 235 243 238 247 252 258 246 237 246 251 nan nan nan nan nan nan 248 249 250 251 251 255 259 262 nan 261 260 263 268 266 266 270 272 276 278 279 278 278 278 280 281 282 286 286 288 292 295 295 297 291 265 259 267 273 278 287 299 303 301 291 284 284 286 289 294 299 303 305 304 304 303 304 301 299 299 298 299 299 300 302 302 301 302 302 304
250 249 252 252 253 254 254 248 245 243 nan nan nan nan nan 255 nan nan nan nan nan nan nan nan nan nan 261 260 260 266 268 268 270 275 280 281 279 281 284 285 285 285 286 286 286 284 286 288 290 295 294 269 260 269 275 280 291 301 303 298 288 283 285 288 289 292 297 300 300 300 298 298 299 300 299 297 296 295 296 296 296 299 nan nan nan 305
250 253 258 254 nan nan 258 259 259 256 250 nan nan nan 256 nan nan nan nan nan nan nan nan nan nan nan 257 259 261 268 271 271 272 274 278 280 282 284 286 286 288 288 287 290 291 289 291 292 290 292 294 274 247 262 273 274 281 292 294 290 285 284 286 290 291 291 292 294 295 294 296 298 299 300 300 300 301 301 297 293 nan nan nan 305 302 nan
248 255 257 255 nan nan 263 264 267 nan nan nan nan nan nan nan nan nan nan nan nan nan nan nan nan nan nan nan 265 271 277 276 276 279 283 283 284 286 287 288 288 287 286 287 287 287 287 286 285 286 283 266 247 252 259 267 281 293 293 287 285 286 287 288 291 293 293 293 294 297 298 300 301 303 302 304 305 nan nan nan nan nan nan nan nan nan